Location: Peterborough
(44.3091°N, 78.3197°W)
Time: 01:38:21
(UTC-04:00)

SR - Pass Details

Date: 23 March 2023
Orbit: 581 x 867 km, 66.7° (Epoch: 02 June)

Event Time Altitude Azimuth Distance (km) Brightness Sun altitude
Rises 10:57:00 0° 340° (NNW) 2,809 ? 36.4°
Reaches altitude 10° 11:00:12 10° 6° (N) 1,913 ? 36.9°
Maximum altitude 11:02:31 14° 40° (NE) 1,665 ? 37.2°
Drops below altitude 10° 11:04:53 10° 73° (ENE) 1,943 ? 37.5°
Sets 11:08:10 0° 98° (E) 2,885 ? 37.9°
